[[{"header":{"parameterUnit":"m.s-1","parameterCategory":1,"la1":30.2991,"la2":30.254,"lo1":-89.0895,"lo2":-89.0444,"dy":0.0017,"dx":0.0017,"nx":28,"ny":28,"refTime":"2025-11-11T03:00:00:Z","depth":0,"parameterNumber":2,"parameterNumberName":"U-component_of_WINDS"},"data":[0,0,0,0,0,0,0,0,0,0,0,0,0,0,0,0,0,0,0,0,0,0,0,0,0,0,0,0,0,0,0,0,0,0,0,0,0,0,0,0,0,0,0,0,0,0,0,0,0,0,0,0,0,0,0,0,0,0,2.4709,2.4709,0,2.4711,2.4711,2.4711,2.4656,2.4655,2.4653,2.4652,2.4652,2.4653,2.4654,0,0,0,0,0,0,0,0,0,0,0,0,0,2.4655,2.4656,2.4709,2.4709,2.4709,2.4711,2.4711,2.4711,2.4656,2.4655,2.4653,2.4651,2.4651,2.4653,2.4654,0,0,0,0,0,0,0,0,0,0,0,0,0,2.4669,2.4656,2.4709,2.4682,2.468,2.4711,2.4711,2.4711,2.4657,2.4654,2.4652,2.465,2.4651,2.4653,2.4655,2.4711,0,0,2.4661,2.4662,0,0,0,0,0,0,0,0,2.4669,2.4672,2.4686,2.4684,2.4682,2.4681,2.4691,2.4711,2.4657,2.4665,2.4652,2.4649,2.4663,2.4664,2.4669,2.4711,2.4711,2.4661,2.4662,2.4663,2.4664,0,0,0,0,0,0,0,2.4668,2.4671,2.471,2.4686,2.4684,2.4669,2.4668,2.4695,2.4676,2.4665,2.4661,2.4662,2.4661,2.4667,2.4668,2.4711,2.4661,2.4663,2.4664,2.4665,2.4793,2.4795,0,0,0,0,0,0,2.4671,2.4671,2.471,2.471,2.467,2.4671,2.4671,2.4683,2.4676,2.4673,2.4663,2.4659,2.4665,2.4666,2.4668,2.4729,2.4663,2.4665,2.4666,2.4791,2.4794,2.4796,0,0,0,0,0,0,2.467,2.4675,2.471,2.4689,2.4692,2.4675,2.4689,2.4685,2.469,2.4675,2.4671,2.4673,2.4663,2.4665,2.4699,2.4729,2.4666,2.4668,2.4788,2.4792,2.4795,2.4855,0,0,0,0,0,0,2.4669,2.4675,2.4697,2.469,2.4694,2.4742,2.4691,2.4686,2.4694,2.4688,2.4683,2.468,2.4662,2.4697,2.4702,2.473,2.4669,2.4786,2.479,2.4794,2.485,2.486,2.4868,0,0,0,0,0,2.4667,2.4715,2.4699,2.4704,2.4722,2.4744,2.4746,2.4724,2.4697,2.4718,2.4707,2.468,2.4726,2.4701,2.4706,2.4736,2.4784,2.4789,2.4794,2.4846,2.4858,2.4868,0,0,0,0,0,0,2.4726,2.4713,2.4695,2.4743,2.4745,2.4735,2.4761,2.4738,2.4748,2.4742,2.4714,2.4713,2.4751,2.4747,2.472,2.4787,2.4749,2.4756,2.4788,2.4799,2.4808,2.4806,2.4671,0,0,0,0,0,2.4745,2.4765,2.4753,2.4796,2.4798,2.4779,2.4789,2.4771,2.4772,2.4773,2.4765,2.4766,2.478,2.479,2.4802,2.485,2.4846,2.4873,2.4882,2.4889,2.4894,2.4914,2.4925,2.4812,2.4812,2.4812,0,0,2.4784,2.4779,2.4794,2.4807,2.4807,2.4826,2.4781,2.4805,2.4818,2.4776,2.4806,2.4801,2.48,2.484,2.4857,2.4838,2.4924,2.4896,2.4902,2.4902,2.492,2.4931,2.4941,2.4816,2.4815,2.4815,0,0,2.4863,2.4864,2.4897,2.4897,2.4896,2.4883,2.4892,2.4884,2.4879,2.4909,2.4877,2.4892,2.4918,2.4917,2.492,2.4996,2.497,2.5001,2.5047,2.5067,2.5076,2.5084,2.5107,2.5116,2.5007,2.5007,2.5007,0,2.4911,2.494,2.4917,2.4942,2.4947,2.491,2.4941,2.4943,2.4946,2.495,2.4929,2.4957,2.4955,2.4992,2.501,2.5015,2.5021,2.5,2.5077,2.5084,2.5091,2.5112,2.5122,2.501,2.501,2.501,2.5009,0,2.4996,2.5017,2.5044,2.5047,2.5055,2.5084,2.5063,2.5074,2.5056,2.5045,2.5074,2.5069,2.5077,2.5086,2.5069,2.5119,2.5107,2.5082,2.5043,2.5106,2.5125,2.5133,2.5015,2.5014,2.5013,2.5012,0,0,2.5113,2.5101,2.5111,2.511,2.5106,2.512,2.5146,2.5154,2.5162,2.5166,2.5184,2.5205,2.5181,2.5184,2.5167,2.5185,2.524,2.5157,2.5157,2.5169,2.529,2.5306,2.5317,2.5224,2.5225,2.5227,2.5289,0,2.5186,2.5229,2.5207,2.5252,2.5268,2.5232,2.5253,2.5252,2.5242,2.5253,2.5241,2.5255,2.5225,2.5225,2.5242,2.523,2.5263,2.5226,2.5237,2.5238,2.5235,2.5327,2.5345,2.5404,2.5297,2.5298,2.5299,0,2.5278,2.5283,2.5329,2.5318,2.5324,2.5344,2.5347,2.5359,2.5356,2.5347,2.5349,2.5326,2.5348,2.5312,2.5339,2.5314,2.5317,2.5312,2.5313,2.5311,2.527,2.5323,2.5423,2.5431,2.5312,2.5311,2.531,0,2.5352,2.5372,2.54,2.5401,2.539,2.5404,2.54,2.5394,2.5399,2.5403,2.5405,2.5411,2.5414,2.5418,2.5396,2.5373,2.5425,2.5388,2.5415,2.5415,2.5425,2.5424,2.5523,2.5434,2.5434,2.5434,2.5434,0,2.5434,2.5463,2.5433,2.545,2.548,2.5454,2.5484,2.5476,2.5471,2.5484,2.5455,2.5468,2.544,2.545,2.5433,2.5456,2.5458,2.5449,2.5444,2.545,2.545,2.5449,2.5443,2.5436,2.5436,2.5435,2.5435,0,2.5522,2.5504,2.5531,2.5518,2.5515,2.5537,2.5525,2.5539,2.5526,2.5543,2.5546,2.5525,2.5535,2.5514,2.5522,2.551,2.5541,2.5531,2.5542,2.5537,2.5564,2.556,2.5663,2.5673,2.5581,2.5582,2.5583,0,2.5574,2.5594,2.5582,2.5588,2.5586,2.5598,2.5602,2.5577,2.5582,2.5578,2.5592,2.5599,2.5603,2.5619,2.5604,2.5608,2.5596,2.5631,2.5596,2.56,2.5591,2.5589,2.5589,2.5638,2.5639,2.564,2.564,0,2.5666,2.5655,2.5662,2.5666,2.5671,2.5673,2.5673,2.568,2.5653,2.5661,2.5669,2.5672,2.5678,2.5684,2.5685,2.5679,2.5654,2.5652,2.5658,2.5662,2.5666,2.566,2.5557,2.5649,2.5648,2.5648,2.5647,2.5647,2.5734,2.5748,2.5741,2.5749,2.5746,2.5746,2.5757,2.5745,2.5752,2.5754,2.574,2.5751,2.5744,2.5741,2.5738,2.5745,2.5729,2.5738,2.574,2.5742,2.5744,2.5668,2.5746,2.5745,2.5745,2.5745,2.5745,0,2.582,2.5813,2.5822,2.5821,2.5826,2.5804,2.5801,2.5807,2.5817,2.5813,2.5816,2.5825,2.583,2.5815,2.5817,2.5825,2.5814,2.5826,2.5824,2.5822,2.5761,2.5753,2.5835,2.5835,2.5835,2.5835,2.5835,2.5835,2.5866,2.5888,2.5876,2.5895,2.5888,2.5898,2.5898,2.5897,2.5892,2.5903,2.5907,2.5897,2.5887,2.5888,2.589,2.5886,2.5886,2.5902,2.5893,2.5836,2.5827,2.5818,2.5811,2.5903,2.5903,2.5953,2.5953,2.5954]},{"header":{"parameterUnit":"m.s-1","parameterCategory":1,"la1":30.2991,"la2":30.254,"lo1":-89.0895,"lo2":-89.0444,"dy":0.0017,"dx":0.0017,"nx":28,"ny":28,"refTime":"2025-11-11T03:00:00:Z","depth":0,"parameterNumber":3,"parameterNumberName":"V-component_of_WINDS"},"data":[0,0,0,0,0,0,0,0,0,0,0,0,0,0,0,0,0,0,0,0,0,0,0,0,0,0,0,0,0,0,0,0,0,0,0,0,0,0,0,0,0,0,0,0,0,0,0,0,0,0,0,0,0,0,0,0,0,0,5.0476,5.0477,0,5.0547,5.0547,5.0548,5.0487,5.0484,5.0482,5.0479,5.0547,5.0551,5.0555,0,0,0,0,0,0,0,0,0,0,0,0,0,5.0282,5.0286,5.0476,5.0477,5.0478,5.0547,5.0548,5.0548,5.0487,5.0484,5.0481,5.0478,5.0546,5.0551,5.0556,0,0,0,0,0,0,0,0,0,0,0,0,0,5.0361,5.0287,5.0476,5.0456,5.0455,5.0546,5.0548,5.0549,5.0488,5.0484,5.048,5.0477,5.0544,5.055,5.0556,5.0671,0,0,5.0576,5.0578,0,0,0,0,0,0,0,0,5.0356,5.0368,5.0458,5.0457,5.0456,5.0504,5.0504,5.059,5.0489,5.0475,5.0479,5.0475,5.0536,5.0542,5.0564,5.0674,5.0677,5.0576,5.058,5.0583,5.0584,0,0,0,0,0,0,0,5.0351,5.0364,5.0504,5.0459,5.0458,5.0441,5.0448,5.052,5.0526,5.0476,5.0472,5.0481,5.0534,5.0558,5.0565,5.0678,5.0576,5.0581,5.0585,5.0588,5.088,5.0884,0,0,0,0,0,0,5.0348,5.036,5.0502,5.0506,5.0396,5.0447,5.0455,5.0492,5.0525,5.0526,5.0484,5.0478,5.0549,5.0558,5.0567,5.0699,5.0583,5.0588,5.0592,5.0876,5.0881,5.0885,0,0,0,0,0,0,5.0344,5.0361,5.0499,5.0432,5.0448,5.0455,5.0497,5.0496,5.0519,5.0531,5.0531,5.0507,5.0546,5.0558,5.0645,5.0701,5.0591,5.0597,5.0871,5.0877,5.0883,5.0966,0,0,0,0,0,0,5.0339,5.036,5.0406,5.0434,5.0452,5.0577,5.0501,5.05,5.0531,5.0523,5.0553,5.0554,5.0544,5.0636,5.0651,5.0707,5.0602,5.0866,5.0874,5.0881,5.0959,5.0974,5.0988,0,0,0,0,0,5.0332,5.0427,5.0408,5.0426,5.0509,5.0581,5.0591,5.0579,5.0536,5.0579,5.0586,5.0553,5.0693,5.0645,5.0662,5.0721,5.0862,5.0872,5.088,5.0952,5.0971,5.0988,0,0,0,0,0,0,5.0405,5.043,5.041,5.0517,5.0547,5.057,5.0626,5.0601,5.0643,5.0634,5.0617,5.0624,5.0714,5.0726,5.0673,5.083,5.077,5.0783,5.0819,5.0837,5.0852,5.0845,5.0607,0,0,0,0,0,5.0433,5.0491,5.051,5.0602,5.0618,5.0619,5.065,5.0638,5.0669,5.0681,5.0694,5.0723,5.0773,5.0806,5.0853,5.0961,5.0964,5.1009,5.1024,5.1036,5.1046,5.1099,5.1118,5.0915,5.0915,5.0914,0,0,5.0492,5.0513,5.0551,5.0617,5.0639,5.0696,5.0631,5.0696,5.0737,5.069,5.0771,5.0782,5.0813,5.091,5.0953,5.0923,5.1104,5.1048,5.1057,5.1061,5.1111,5.113,5.1147,5.0921,5.092,5.0919,0,0,5.0629,5.0653,5.0729,5.0753,5.0787,5.0787,5.0805,5.0832,5.0837,5.0919,5.0884,5.0932,5.102,5.1042,5.1065,5.1207,5.1176,5.1223,5.1299,5.1351,5.1366,5.138,5.1427,5.1444,5.1234,5.1234,5.1234,0,5.0697,5.0784,5.0772,5.0838,5.0866,5.0827,5.0903,5.0926,5.0973,5.0992,5.0959,5.1065,5.1084,5.1182,5.1216,5.1238,5.1255,5.1218,5.1366,5.138,5.1392,5.1436,5.1454,5.1239,5.1238,5.1238,5.1237,0,5.0865,5.0925,5.0983,5.103,5.1065,5.1136,5.1131,5.1167,5.1152,5.1155,5.1236,5.1257,5.1305,5.1328,5.1314,5.1424,5.1403,5.1369,5.1307,5.1417,5.1458,5.1475,5.1246,5.1244,5.1243,5.1242,0,0,5.1048,5.1086,5.1107,5.1125,5.1159,5.1205,5.1272,5.132,5.1349,5.1384,5.1437,5.1511,5.1477,5.1503,5.1491,5.1537,5.1643,5.1496,5.1496,5.1519,5.1759,5.1783,5.1803,5.1624,5.1627,5.163,5.1755,0,5.1182,5.1301,5.129,5.1401,5.1454,5.1417,5.1475,5.15,5.1504,5.1548,5.1552,5.1603,5.1557,5.1572,5.1616,5.1621,5.169,5.1612,5.167,5.1672,5.1659,5.1825,5.1851,5.1968,5.1771,5.1774,5.1776,0,5.1355,5.1394,5.151,5.1532,5.1554,5.1607,5.1647,5.1691,5.1718,5.1717,5.1745,5.1724,5.1789,5.1728,5.1815,5.1762,5.1785,5.1791,5.1795,5.1797,5.1728,5.1827,5.2006,5.2022,5.1802,5.18,5.1798,0,5.1472,5.1554,5.1632,5.165,5.1679,5.1716,5.173,5.1753,5.1781,5.1817,5.1834,5.1877,5.1899,5.1932,5.1921,5.1879,5.2009,5.1948,5.2006,5.2007,5.2033,5.2031,5.2214,5.2055,5.2054,5.2054,5.2054,0,5.162,5.1692,5.1684,5.1733,5.181,5.1796,5.1873,5.1881,5.1902,5.1949,5.192,5.1965,5.195,5.1993,5.1986,5.2056,5.2068,5.2066,5.2063,5.2067,5.2066,5.2079,5.2069,5.2059,5.2058,5.2057,5.2056,0,5.1763,5.1762,5.1844,5.1864,5.1871,5.1927,5.1942,5.1986,5.1987,5.2047,5.206,5.2061,5.211,5.2104,5.2159,5.2153,5.2239,5.2228,5.223,5.2226,5.2283,5.2276,5.2478,5.2502,5.2331,5.2332,5.2334,0,5.1856,5.191,5.1935,5.1965,5.1981,5.2029,5.2057,5.2045,5.2075,5.2108,5.2147,5.2193,5.2229,5.2308,5.2312,5.2353,5.234,5.2408,5.2346,5.2347,5.2336,5.2331,5.2334,5.2419,5.2421,5.2422,5.2424,0,5.202,5.2016,5.2059,5.21,5.2134,5.2166,5.2195,5.222,5.221,5.2245,5.2295,5.2323,5.2377,5.2422,5.246,5.2471,5.2445,5.2444,5.2458,5.2461,5.2458,5.2456,5.2259,5.2438,5.2437,5.2436,5.2435,5.2434,5.2138,5.2182,5.2206,5.2253,5.2273,5.23,5.2341,5.2346,5.2388,5.2431,5.2422,5.2476,5.2498,5.2546,5.2562,5.2603,5.2577,5.26,5.2605,5.261,5.2615,5.2455,5.261,5.261,5.2609,5.2609,5.2609,0,5.2297,5.231,5.2353,5.2394,5.243,5.2403,5.2433,5.2464,5.2513,5.2536,5.2572,5.2626,5.2669,5.2676,5.2716,5.2747,5.2736,5.2758,5.2753,5.2755,5.2637,5.2618,5.2766,5.2766,5.2766,5.2766,5.2766,5.2766,5.2383,5.2455,5.2454,5.2534,5.2546,5.26,5.2618,5.2642,5.266,5.2722,5.2757,5.2762,5.2778,5.2818,5.2855,5.2856,5.287,5.2896,5.2892,5.278,5.2764,5.2749,5.2731,5.2901,5.2901,5.3006,5.3007,5.3008]}]]